QPF
0.00 0.00 0.00 0.00 0.01 0.03 0.11 0.11 0.10 0.03 0.00 0.01 0.03 0.05 0.06 0.05 0.05 0.03 0.02 0.01 0.00 0.00 0.00 0.01 0.01 0.02 0.01 0.01 0.01 0.01 0.01 0.02 0.02 0.03 0.03 0.02 0.01 0.00 0.00 0.00 0.00 0.00 0.00 0.00
0.00 0.00 0.00 0.00 0.01 0.02 0.03 0.03 0.04 0.03 0.02 0.03 0.05 0.06 0.08 0.09 0.06 0.03 0.01 0.01 0.00 0.00 0.01 0.01 0.01 0.00 0.00 0.01 0.02 0.03 0.03 0.03 0.03 0.04 0.03 0.02 0.01 0.00 0.00 0.00 0.00 0.00 0.00 0.00
0.01 0.00 0.00 0.01 0.03 0.03 0.03 0.02 0.04 0.05 0.04 0.05 0.08 0.08 0.09 0.08 0.04 0.02 0.01 0.01 0.01 0.00 0.00 0.00 0.00 0.00 0.02 0.03 0.04 0.05 0.06 0.06 0.05 0.04 0.03 0.01 0.00 0.00 0.00 0.00 0.00 0.00 0.00 0.00
0.02 0.01 0.02 0.02 0.02 0.03 0.02 0.01 0.02 0.04 0.04 0.05 0.08 0.09 0.07 0.05 0.04 0.02 0.01 0.01 0.00 0.00 0.00 0.00 0.01 0.02 0.05 0.06 0.07 0.07 0.08 0.09 0.08 0.07 0.04 0.01 0.00 0.00 0.00 0.00 0.00 0.00 0.00 0.00
0.03 0.03 0.01 0.01 0.01 0.01 0.01 0.01 0.01 0.02 0.02 0.02 0.05 0.09 0.12 0.09 0.06 0.04 0.02 0.01 0.01 0.01 0.01 0.01 0.03 0.06 0.09 0.12 0.13 0.13 0.13 0.11 0.08 0.04 0.02 0.01 0.00 0.00 0.00 0.00 0.00 0.00 0.00 0.00
0.05 0.05 0.02 0.01 0.00 0.00 0.01 0.01 0.00 0.01 0.01 0.01 0.02 0.06 0.11 0.12 0.09 0.07 0.06 0.05 0.04 0.04 0.05 0.06 0.08 0.11 0.16 0.21 0.23 0.21 0.14 0.08 0.05 0.02 0.01 0.00 0.00 0.00 0.00 0.00 0.00 0.00 0.00 0.00
0.03 0.04 0.00 0.00 0.00 0.00 0.00 0.00 0.00 0.00 0.00 0.00 0.01 0.02 0.04 0.07 0.09 0.08 0.09 0.10 0.11 0.11 0.14 0.15 0.15 0.17 0.20 0.20 0.20 0.16 0.10 0.05 0.02 0.01 0.00 0.00 0.00 0.00 0.00 0.00 0.00 0.00 0.00 0.00
0.01 0.02 0.01 0.00 0.00 0.00 0.00 0.00 0.00 0.00 0.00 0.00 0.00 0.00 0.01 0.02 0.04 0.05 0.06 0.08 0.11 0.13 0.15 0.14 0.12 0.10 0.09 0.07 0.06 0.04 0.02 0.01 0.00 0.00 0.00 0.00 0.00 0.00 0.00 0.00 0.00 0.00 0.00 0.00
0.01 0.00 0.00 0.00 0.00 0.00 0.00 0.00 0.00 0.00 0.00 0.00 0.00 0.00 0.00 0.00 0.01 0.01 0.02 0.02 0.02 0.03 0.03 0.02 0.02 0.01 0.01 0.00 0.00 0.00 0.00 0.00 0.00 0.00 0.00 0.00 0.00 0.00 0.00 0.00 0.00 0.00 0.00 0.00
0.00 0.00 0.00 0.00 0.00 0.00 0.00 0.00 0.00 0.00 0.00 0.00 0.01 0.01 0.01 0.01 0.01 0.01 0.00 0.00 0.00 0.00 0.00 0.00 0.00 0.00 0.00 0.00 0.00 0.00 0.00 0.00 0.00 0.00 0.00 0.00 0.00 0.00 0.00 0.00 0.00 0.00 0.00 0.00
0.00 0.00 0.00 0.00 0.00 0.00 0.00 0.00 0.00 0.00 0.00 0.00 0.00 0.00 0.00 0.01 0.00 0.00 0.00 0.00 0.00 0.00 0.00 0.00 0.00 0.00 0.00 0.00 0.00 0.00 0.00 0.00 0.00 0.00 0.00 0.00 0.00 0.00 0.00 0.00 0.00 0.00 0.00 0.00
0.00 0.00 0.00 0.00 0.00 0.00 0.00 0.00 0.00 0.00 0.00 0.00 0.00 0.00 0.00 0.00 0.00 0.00 0.00 0.00 0.00 0.00 0.00 0.00 0.00 0.00 0.00 0.00 0.00 0.00 0.00 0.00 0.00 0.00 0.00 0.00 0.00 0.00 0.00 0.00 0.00 0.00 0.00 0.00
0.00 0.00 0.00 0.00 0.00 0.00 0.00 0.00 0.00 0.00 0.00 0.00 0.00 0.00 0.00 0.00 0.00 0.00 0.00 0.00 0.00 0.00 0.00 0.00 0.00 0.00 0.00 0.00 0.00 0.00 0.00 0.00 0.00 0.00 0.00 0.00 0.00 0.00 0.00 0.00 0.00 0.00 0.00 0.00
0.00 0.00 0.00 0.00 0.00 0.00 0.00 0.00 0.00 0.00 0.00 0.00 0.00 0.00 0.00 0.00 0.00 0.00 0.00 0.00 0.00 0.00 0.00 0.00 0.00 0.00 0.00 0.00 0.00 0.00 0.00 0.00 0.00 0.00 0.00 0.00 0.00 0.00 0.00 0.00 0.00 0.00 0.00 0.00
0.00 0.00 0.00 0.00 0.00 0.00 0.00 0.00 0.00 0.00 0.00 0.00 0.00 0.00 0.00 0.00 0.00 0.00 0.00 0.00 0.00 0.00 0.00 0.00 0.00 0.00 0.00 0.00 0.00 0.00 0.00 0.00 0.00 0.00 0.00 0.00 0.00 0.00 0.00 0.00 0.00 0.00 0.00 0.00
0.00 0.00 0.00 0.00 0.00 0.00 0.00 0.00 0.00 0.00 0.00 0.00 0.00 0.00 0.00 0.00 0.00 0.00 0.00 0.00 0.00 0.00 0.00 0.00 0.00 0.00 0.00 0.00 0.00 0.00 0.00 0.00 0.00 0.00 0.00 0.00 0.00 0.00 0.00 0.00 0.00 0.00 0.00 0.00
0.00 0.00 0.00 0.00 0.00 0.00 0.00 0.00 0.00 0.00 0.00 0.00 0.00 0.00 0.00 0.00 0.00 0.00 0.00 0.00 0.00 0.00 0.00 0.00 0.00 0.00 0.00 0.00 0.00 0.00 0.00 0.00 0.00 0.00 0.00 0.00 0.00 0.00 0.00 0.00 0.00 0.00 0.00 0.00
0.00 0.00 0.00 0.00 0.00 0.00 0.00 0.00 0.00 0.00 0.00 0.00 0.00 0.00 0.00 0.00 0.00 0.00 0.00 0.00 0.00 0.00 0.00 0.00 0.00 0.00 0.00 0.00 0.00 0.00 0.00 0.00 0.00 0.00 0.00 0.00 0.00 0.00 0.00 0.00 0.00 0.00 0.00 0.00
0.00 0.00 0.00 0.00 0.00 0.00 0.00 0.00 0.00 0.00 0.00 0.00 0.00 0.00 0.00 0.00 0.00 0.00 0.00 0.00 0.00 0.00 0.00 0.00 0.00 0.00 0.00 0.00 0.00 0.00 0.00 0.00 0.00 0.00 0.00 0.00 0.00 0.00 0.00 0.00 0.00 0.00 0.00 0.00
0.00 0.00 0.00 0.00 0.00 0.00 0.00 0.00 0.00 0.00 0.00 0.00 0.00 0.00 0.00 0.00 0.00 0.00 0.00 0.00 0.00 0.00 0.00 0.00 0.00 0.00 0.00 0.00 0.00 0.00 0.00 0.00 0.00 0.00 0.00 0.00 0.00 0.00 0.00 0.00 0.00 0.00 0.00 0.00
0.00 0.00 0.00 0.01 0.01 0.00 0.00 0.00 0.00 0.00 0.00 0.00 0.00 0.00 0.00 0.00 0.00 0.00 0.00 0.00 0.00 0.00 0.00 0.00 0.00 0.00 0.00 0.00 0.00 0.00 0.00 0.00 0.00 0.00 0.00 0.00 0.00 0.00 0.00 0.00 0.00 0.00 0.00 0.00
0.00 0.00 0.00 0.00 0.00 0.01 0.00 0.00 0.00 0.00 0.00 0.00 0.00 0.00 0.00 0.00 0.00 0.00 0.00 0.00 0.00 0.00 0.00 0.00 0.00 0.00 0.00 0.00 0.00 0.00 0.00 0.00 0.00 0.00 0.00 0.00 0.00 0.00 0.00 0.00 0.00 0.00 0.00 0.00
0.00 0.00 0.00 0.00 0.00 0.00 0.00 0.00 0.00 0.00 0.00 0.00 0.00 0.00 0.00 0.00 0.00 0.00 0.00 0.00 0.00 0.00 0.00 0.00 0.00 0.00 0.00 0.00 0.00 0.00 0.00 0.00 0.00 0.00 0.00 0.00 0.00 0.00 0.00 0.00 0.00 0.00 0.00 0.00
0.00 0.00 0.00 0.00 0.00 0.00 0.00 0.00 0.00 0.00 0.00 0.00 0.00 0.00 0.00 0.00 0.00 0.00 0.00 0.00 0.00 0.00 0.00 0.00 0.00 0.00 0.00 0.00 0.00 0.00 0.00 0.00 0.00 0.00 0.00 0.00 0.00 0.00 0.00 0.00 0.00 0.00 0.00 0.00
0.00 0.00 0.00 0.00 0.00 0.00 0.00 0.00 0.00 0.00 0.00 0.00 0.00 0.00 0.00 0.00 0.00 0.00 0.00 0.00 0.00 0.00 0.00 0.00 0.00 0.00 0.00 0.00 0.00 0.00 0.00 0.00 0.00 0.00 0.00 0.00 0.00 0.00 0.00 0.00 0.00 0.00 0.00 0.00
0.00 0.00 0.00 0.00 0.00 0.00 0.00 0.00 0.00 0.00 0.00 0.00 0.00 0.00 0.00 0.00 0.00 0.00 0.00 0.00 0.00 0.00 0.00 0.00 0.00 0.00 0.00 0.00 0.00 0.00 0.00 0.00 0.00 0.00 0.00 0.00 0.00 0.00 0.00 0.00 0.00 0.00 0.00 0.00
0.00 0.00 0.00 0.00 0.00 0.00 0.00 0.00 0.00 0.00 0.00 0.00 0.00 0.00 0.00 0.00 0.00 0.00 0.00 0.00 0.00 0.00 0.00 0.00 0.00 0.00 0.00 0.00 0.00 0.00 0.00 0.00 0.00 0.00 0.00 0.00 0.00 0.00 0.00 0.00 0.00 0.00 0.00 0.00
MSLP
1011.06 1011.21 1011.25 1011.14 1010.86 1010.39 1009.73 1008.91 1007.96 1006.94 1005.92 1004.98 1004.16 1003.50 1003.02 1002.71 1002.54 1002.47 1002.46 1002.49 1002.53 1002.58 1002.66 1002.80 1003.03 1003.37 1003.85 1004.47 1005.20 1006.02 1006.88 1007.76 1008.61 1009.43 1010.21 1010.96 1011.71 1012.46 1013.25 1014.07 1014.91 1015.74 1016.54 1017.27
1010.76 1010.77 1010.64 1010.36 1009.92 1009.33 1008.60 1007.78 1006.90 1006.01 1005.17 1004.42 1003.80 1003.31 1002.96 1002.73 1002.61 1002.56 1002.56 1002.60 1002.67 1002.80 1002.99 1003.28 1003.67 1004.19 1004.83 1005.57 1006.39 1007.24 1008.10 1008.92 1009.70 1010.42 1011.09 1011.74 1012.40 1013.07 1013.79 1014.54 1015.32 1016.10 1016.86 1017.54
1010.34 1010.20 1009.91 1009.48 1008.90 1008.22 1007.45 1006.65 1005.87 1005.13 1004.47 1003.93 1003.51 1003.20 1003.00 1002.89 1002.84 1002.84 1002.87 1002.95 1003.09 1003.30 1003.60 1004.01 1004.55 1005.20 1005.96 1006.80 1007.67 1008.53 1009.36 1010.12 1010.82 1011.44 1012.02 1012.57 1013.13 1013.72 1014.36 1015.04 1015.76 1016.48 1017.17 1017.80
1009.78 1009.50 1009.08 1008.52 1007.85 1007.12 1006.36 1005.63 1004.96 1004.39 1003.93 1003.60 1003.40 1003.28 1003.25 1003.27 1003.32 1003.39 1003.49 1003.63 1003.83 1004.11 1004.50 1005.01 1005.63 1006.37 1007.20 1008.07 1008.95 1009.79 1010.57 1011.26 1011.87 1012.41 1012.90 1013.37 1013.86 1014.38 1014.94 1015.56 1016.20 1016.85 1017.48 1018.04
1009.10 1008.70 1008.17 1007.54 1006.83 1006.10 1005.40 1004.78 1004.26 1003.88 1003.64 1003.53 1003.53 1003.62 1003.76 1003.92 1004.08 1004.25 1004.42 1004.62 1004.87 1005.21 1005.64 1006.20 1006.86 1007.62 1008.45 1009.30 1010.14 1010.93 1011.64 1012.26 1012.80 1013.26 1013.68 1014.10 1014.53 1014.99 1015.50 1016.06 1016.64 1017.22 1017.77 1018.26
1008.32 1007.85 1007.26 1006.61 1005.92 1005.26 1004.66 1004.18 1003.84 1003.66 1003.63 1003.73 1003.94 1004.21 1004.51 1004.80 1005.08 1005.33 1005.58 1005.83 1006.12 1006.48 1006.93 1007.48 1008.13 1008.86 1009.63 1010.42 1011.18 1011.89 1012.52 1013.07 1013.55 1013.96 1014.35 1014.73 1015.13 1015.56 1016.03 1016.54 1017.06 1017.57 1018.04 1018.44
1007.50 1006.99 1006.40 1005.78 1005.18 1004.63 1004.18 1003.87 1003.72 1003.73 1003.90 1004.19 1004.57 1005.00 1005.43 1005.84 1006.21 1006.54 1006.83 1007.12 1007.44 1007.80 1008.23 1008.75 1009.34 1009.99 1010.68 1011.38 1012.05 1012.67 1013.22 1013.71 1014.15 1014.54 1014.90 1015.28 1015.67 1016.09 1016.54 1017.00 1017.46 1017.90 1018.29 1018.61
1006.69 1006.18 1005.65 1005.12 1004.64 1004.25 1003.98 1003.85 1003.89 1004.08 1004.41 1004.84 1005.35 1005.89 1006.41 1006.90 1007.33 1007.71 1008.05 1008.36 1008.68 1009.03 1009.43 1009.89 1010.41 1010.97 1011.57 1012.17 1012.75 1013.29 1013.78 1014.23 1014.64 1015.02 1015.40 1015.78 1016.18 1016.60 1017.03 1017.45 1017.86 1018.22 1018.53 1018.76
1005.92 1005.46 1005.03 1004.65 1004.33 1004.12 1004.04 1004.10 1004.29 1004.63 1005.08 1005.61 1006.19 1006.78 1007.35 1007.87 1008.33 1008.74 1009.09 1009.41 1009.73 1010.07 1010.44 1010.85 1011.30 1011.80 1012.31 1012.82 1013.33 1013.81 1014.26 1014.69 1015.09 1015.49 1015.88 1016.28 1016.69 1017.10 1017.51 1017.89 1018.24 1018.53 1018.75 1018.89
1005.22 1004.87 1004.57 1004.35 1004.23 1004.22 1004.32 1004.54 1004.87 1005.31 1005.83 1006.41 1007.01 1007.60 1008.17 1008.68 1009.14 1009.55 1009.91 1010.24 1010.56 1010.90 1011.25 1011.63 1012.05 1012.49 1012.94 1013.40 1013.86 1014.31 1014.74 1015.16 1015.58 1015.98 1016.40 1016.81 1017.22 1017.62 1017.99 1018.33 1018.61 1018.82 1018.95 1019.01
1004.63 1004.40 1004.26 1004.23 1004.30 1004.47 1004.74 1005.10 1005.54 1006.05 1006.60 1007.17 1007.75 1008.31 1008.83 1009.32 1009.76 1010.16 1010.52 1010.86 1011.20 1011.55 1011.91 1012.29 1012.69 1013.11 1013.54 1013.98 1014.42 1014.85 1015.28 1015.70 1016.12 1016.54 1016.96 1017.37 1017.76 1018.13 1018.46 1018.74 1018.95 1019.08 1019.13 1019.11
1004.16 1004.06 1004.08 1004.22 1004.47 1004.82 1005.24 1005.71 1006.23 1006.77 1007.33 1007.88 1008.41 1008.91 1009.39 1009.83 1010.25 1010.64 1011.01 1011.37 1011.74 1012.11 1012.50 1012.89 1013.31 1013.73 1014.16 1014.60 1015.03 1015.46 1015.89 1016.32 1016.74 1017.16 1017.56 1017.95 1018.31 1018.63 1018.89 1019.10 1019.23 1019.29 1019.27 1019.18
1003.80 1003.83 1004.00 1004.30 1004.70 1005.19 1005.73 1006.30 1006.88 1007.45 1007.99 1008.51 1009.00 1009.46 1009.89 1010.31 1010.71 1011.10 1011.49 1011.88 1012.28 1012.70 1013.12 1013.55 1013.98 1014.42 1014.86 1015.30 1015.73 1016.15 1016.58 1016.99 1017.40 1017.79 1018.17 1018.51 1018.81 1019.06 1019.26 1019.38 1019.44 1019.43 1019.35 1019.21
1003.57 1003.70 1003.98 1004.41 1004.94 1005.54 1006.17 1006.82 1007.44 1008.03 1008.58 1009.09 1009.56 1010.00 1010.42 1010.82 1011.23 1011.64 1012.06 1012.49 1012.93 1013.38 1013.84 1014.29 1014.74 1015.19 1015.63 1016.06 1016.48 1016.89 1017.29 1017.68 1018.05 1018.40 1018.72 1019.01 1019.24 1019.42 1019.54 1019.59 1019.57 1019.50 1019.37 1019.21
1003.48 1003.67 1004.03 1004.53 1005.14 1005.82 1006.52 1007.22 1007.88 1008.51 1009.08 1009.60 1010.09 1010.54 1010.98 1011.42 1011.86 1012.31 1012.77 1013.24 1013.72 1014.19 1014.67 1015.13 1015.59 1016.02 1016.44 1016.84 1017.23 1017.61 1017.97 1018.32 1018.64 1018.94 1019.20 1019.41 1019.57 1019.68 1019.72 1019.70 1019.63 1019.51 1019.35 1019.17
1003.53 1003.74 1004.13 1004.66 1005.31 1006.02 1006.76 1007.49 1008.20 1008.86 1009.48 1010.05 1010.58 1011.09 1011.59 1012.08 1012.58 1013.08 1013.59 1014.10 1014.60 1015.10 1015.57 1016.03 1016.46 1016.86 1017.24 1017.60 1017.94 1018.27 1018.58 1018.87 1019.14 1019.37 1019.57 1019.72 1019.81 1019.85 1019.83 1019.76 1019.64 1019.49 1019.31 1019.12
1003.74 1003.94 1004.30 1004.82 1005.45 1006.15 1006.89 1007.65 1008.38 1009.09 1009.77 1010.41 1011.02 1011.60 1012.18 1012.75 1013.32 1013.89 1014.44 1014.99 1015.51 1016.01 1016.47 1016.90 1017.29 1017.65 1017.97 1018.28 1018.56 1018.83 1019.08 1019.32 1019.53 1019.71 1019.85 1019.94 1019.98 1019.96 1019.90 1019.79 1019.64 1019.47 1019.28 1019.09
1004.13 1004.27 1004.57 1005.02 1005.59 1006.25 1006.97 1007.72 1008.47 1009.22 1009.95 1010.66 1011.36 1012.03 1012.70 1013.36 1014.00 1014.63 1015.23 1015.81 1016.34 1016.83 1017.27 1017.66 1018.01 1018.31 1018.58 1018.83 1019.06 1019.27 1019.47 1019.66 1019.82 1019.95 1020.05 1020.10 1020.11 1020.06 1019.96 1019.83 1019.66 1019.48 1019.28 1019.10
1004.69 1004.75 1004.96 1005.31 1005.80 1006.39 1007.05 1007.77 1008.52 1009.28 1010.06 1010.83 1011.59 1012.35 1013.09 1013.82 1014.53 1015.21 1015.86 1016.45 1016.99 1017.47 1017.89 1018.25 1018.56 1018.82 1019.05 1019.25 1019.43 1019.61 1019.77 1019.92 1020.05 1020.15 1020.22 1020.25 1020.23 1020.16 1020.05 1019.91 1019.74 1019.55 1019.35 1019.16
1005.41 1005.38 1005.48 1005.73 1006.12 1006.61 1007.21 1007.87 1008.59 1009.35 1010.14 1010.94 1011.75 1012.56 1013.36 1014.14 1014.89 1015.61 1016.27 1016.88 1017.42 1017.90 1018.30 1018.65 1018.93 1019.17 1019.38 1019.55 1019.71 1019.87 1020.01 1020.13 1020.24 1020.33 1020.38 1020.39 1020.36 1020.29 1020.18 1020.03 1019.86 1019.67 1019.47 1019.27
1006.25 1006.13 1006.15 1006.30 1006.58 1006.99 1007.50 1008.10 1008.77 1009.50 1010.28 1011.07 1011.89 1012.71 1013.53 1014.32 1015.09 1015.82 1016.50 1017.11 1017.66 1018.13 1018.54 1018.88 1019.17 1019.41 1019.61 1019.78 1019.94 1020.08 1020.21 1020.33 1020.43 1020.50 1020.54 1020.55 1020.51 1020.44 1020.32 1020.18 1020.00 1019.81 1019.61 1019.41
1007.14 1006.97 1006.92 1007.00 1007.20 1007.53 1007.97 1008.51 1009.13 1009.81 1010.53 1011.30 1012.09 1012.88 1013.68 1014.46 1015.21 1015.93 1016.60 1017.21 1017.76 1018.24 1018.66 1019.02 1019.32 1019.58 1019.79 1019.98 1020.14 1020.28 1020.40 1020.51 1020.60 1020.66 1020.69 1020.68 1020.64 1020.56 1020.44 1020.30 1020.13 1019.94 1019.73 1019.52
1008.03 1007.85 1007.77 1007.81 1007.97 1008.25 1008.64 1009.12 1009.67 1010.29 1010.97 1011.67 1012.40 1013.14 1013.89 1014.62 1015.34 1016.02 1016.67 1017.27 1017.82 1018.32 1018.75 1019.13 1019.46 1019.73 1019.97 1020.17 1020.33 1020.47 1020.59 1020.68 1020.75 1020.78 1020.79 1020.77 1020.71 1020.62 1020.50 1020.35 1020.18 1019.99 1019.78 1019.55
1008.85 1008.68 1008.61 1008.66 1008.81 1009.08 1009.44 1009.88 1010.39 1010.96 1011.57 1012.21 1012.86 1013.53 1014.21 1014.88 1015.54 1016.18 1016.80 1017.38 1017.93 1018.43 1018.88 1019.28 1019.62 1019.92 1020.17 1020.37 1020.53 1020.66 1020.75 1020.81 1020.85 1020.85 1020.83 1020.77 1020.69 1020.59 1020.46 1020.30 1020.13 1019.93 1019.71 1019.46
1009.52 1009.40 1009.38 1009.47 1009.65 1009.93 1010.30 1010.73 1011.21 1011.73 1012.29 1012.86 1013.45 1014.05 1014.65 1015.25 1015.86 1016.45 1017.03 1017.60 1018.13 1018.63 1019.08 1019.49 1019.85 1020.15 1020.39 1020.58 1020.73 1020.82 1020.87 1020.89 1020.87 1020.83 1020.76 1020.67 1020.56 1020.43 1020.28 1020.11 1019.93 1019.72 1019.48 1019.22
1010.00 1009.95 1010.00 1010.15 1010.39 1010.71 1011.09 1011.53 1012.01 1012.51 1013.03 1013.56 1014.09 1014.63 1015.17 1015.72 1016.27 1016.83 1017.38 1017.91 1018.43 1018.92 1019.37 1019.77 1020.12 1020.40 1020.63 1020.79 1020.89 1020.93 1020.93 1020.88 1020.81 1020.71 1020.59 1020.45 1020.30 1020.14 1019.97 1019.79 1019.59 1019.36 1019.10 1018.81
1010.27 1010.29 1010.41 1010.63 1010.92 1011.29 1011.72 1012.18 1012.66 1013.16 1013.67 1014.17 1014.68 1015.18 1015.69 1016.21 1016.73 1017.26 1017.78 1018.30 1018.80 1019.27 1019.70 1020.08 1020.40 1020.66 1020.84 1020.95 1020.99 1020.97 1020.90 1020.79 1020.65 1020.49 1020.31 1020.13 1019.94 1019.75 1019.55 1019.34 1019.11 1018.86 1018.58 1018.26
Thickness
5528 5536 5537 5536 5537 5536 5527 5523 5524 5537 5540 5547 5543 5535 5528 5521 5515 5512 5512 5512 5513 5515 5518 5523 5531 5540 5549 5555 5559 5561 5562 5563 5564 5564 5562 5559 5554 5549 5544 5539 5533 5526 5518 5510
5527 5541 5545 5545 5549 5550 5547 5544 5540 5540 5545 5549 5545 5536 5527 5518 5512 5509 5508 5510 5512 5514 5515 5519 5525 5531 5538 5543 5547 5550 5552 5553 5554 5553 5549 5545 5541 5537 5532 5526 5520 5513 5506 5499
5528 5547 5548 5552 5561 5556 5552 5552 5548 5547 5551 5552 5546 5538 5526 5516 5511 5509 5510 5511 5513 5513 5514 5516 5520 5525 5529 5534 5538 5541 5542 5543 5542 5539 5534 5531 5528 5525 5520 5514 5507 5501 5494 5487
5525 5537 5547 5565 5568 5562 5557 5559 5560 5558 5557 5553 5546 5534 5522 5513 5510 5511 5514 5513 5512 5510 5510 5512 5516 5520 5523 5526 5528 5529 5530 5529 5527 5524 5521 5519 5518 5514 5508 5502 5495 5488 5482 5476
5526 5535 5550 5568 5570 5566 5560 5561 5568 5562 5560 5557 5552 5540 5526 5514 5513 5511 5511 5510 5508 5507 5507 5508 5511 5513 5515 5515 5516 5516 5517 5517 5516 5515 5513 5511 5507 5502 5496 5490 5483 5477 5471 5464
5528 5535 5548 5568 5573 5573 5563 5563 5570 5566 5562 5559 5556 5549 5525 5512 5509 5507 5506 5505 5504 5504 5504 5503 5503 5505 5506 5506 5506 5506 5508 5508 5507 5505 5503 5500 5495 5490 5484 5478 5472 5466 5459 5453
5530 5534 5549 5573 5575 5573 5564 5567 5570 5567 5562 5555 5544 5532 5521 5514 5508 5504 5502 5501 5501 5500 5499 5498 5498 5499 5499 5499 5498 5499 5500 5499 5498 5495 5493 5488 5484 5478 5473 5467 5461 5455 5449 5443
5537 5538 5550 5578 5576 5570 5569 5572 5570 5566 5557 5545 5536 5528 5521 5516 5511 5507 5503 5500 5499 5499 5497 5495 5495 5496 5496 5495 5494 5494 5492 5489 5487 5485 5482 5478 5473 5467 5462 5456 5450 5444 5437 5430
5553 5557 5574 5580 5578 5574 5570 5567 5565 5561 5553 5543 5535 5526 5520 5515 5511 5509 5507 5505 5503 5501 5499 5496 5494 5494 5495 5491 5489 5487 5484 5481 5478 5475 5472 5468 5463 5457 5451 5445 5437 5431 5424 5417
5556 5566 5575 5577 5572 5568 5562 5560 5559 5558 5552 5544 5533 5525 5518 5515 5510 5508 5506 5503 5501 5498 5496 5491 5489 5488 5489 5487 5484 5482 5478 5474 5470 5466 5462 5457 5451 5445 5439 5431 5424 5418 5412 5404
5555 5565 5574 5569 5564 5562 5558 5555 5552 5549 5546 5538 5531 5523 5517 5513 5509 5506 5503 5499 5496 5494 5491 5487 5485 5484 5483 5481 5480 5476 5470 5465 5461 5457 5451 5445 5439 5432 5427 5420 5413 5406 5399 5391
5555 5566 5566 5564 5559 5557 5554 5548 5544 5539 5535 5531 5526 5520 5515 5509 5505 5502 5497 5494 5491 5489 5487 5484 5482 5479 5476 5474 5472 5468 5462 5456 5450 5445 5440 5434 5428 5423 5418 5411 5405 5398 5390 5382
5561 5563 5561 5556 5552 5550 5545 5541 5538 5533 5528 5523 5519 5515 5510 5505 5500 5496 5492 5489 5486 5484 5481 5478 5475 5471 5468 5466 5463 5458 5451 5445 5440 5435 5429 5424 5418 5412 5405 5400 5394 5388 5381 5373
5561 5559 5557 5554 5547 5542 5536 5533 5529 5525 5521 5517 5512 5508 5504 5499 5494 5490 5486 5483 5481 5478 5474 5470 5466 5461 5459 5456 5452 5446 5441 5436 5430 5424 5419 5413 5407 5401 5394 5387 5379 5373 5367 5360
5554 5553 5550 5544 5536 5531 5527 5524 5520 5516 5512 5508 5505 5501 5497 5492 5486 5482 5479 5476 5473 5469 5464 5460 5456 5452 5449 5446 5442 5436 5430 5425 5419 5414 5408 5403 5396 5390 5383 5376 5368 5360 5353 5345
5542 5541 5537 5533 5528 5524 5522 5520 5516 5511 5507 5503 5498 5493 5487 5482 5478 5474 5471 5468 5465 5460 5455 5451 5446 5443 5440 5437 5431 5424 5418 5415 5409 5403 5397 5391 5385 5378 5371 5364 5356 5347 5339 5330
5528 5526 5523 5521 5520 5519 5519 5519 5515 5510 5504 5498 5491 5484 5479 5475 5471 5467 5462 5459 5456 5451 5446 5442 5438 5434 5431 5427 5421 5415 5408 5403 5399 5393 5387 5380 5374 5367 5360 5351 5343 5333 5323 5315
5527 5532 5528 5525 5523 5520 5518 5515 5510 5505 5499 5492 5485 5479 5474 5471 5465 5459 5454 5451 5447 5441 5437 5433 5430 5425 5420 5416 5411 5405 5399 5393 5388 5382 5376 5370 5363 5356 5348 5339 5329 5319 5308 5297
5524 5528 5528 5526 5523 5519 5515 5510 5505 5499 5492 5486 5481 5475 5470 5464 5459 5453 5449 5444 5439 5432 5427 5425 5422 5415 5410 5406 5401 5395 5390 5384 5379 5373 5367 5361 5353 5345 5336 5325 5314 5303 5292 5282
5516 5519 5521 5518 5516 5513 5509 5504 5498 5491 5487 5482 5477 5469 5462 5457 5452 5448 5443 5438 5433 5427 5422 5417 5412 5407 5401 5396 5392 5386 5381 5376 5370 5364 5358 5350 5342 5332 5322 5311 5299 5287 5275 5265
5503 5506 5507 5505 5503 5502 5499 5495 5491 5486 5481 5477 5472 5465 5457 5451 5447 5442 5436 5428 5423 5420 5415 5411 5404 5399 5393 5388 5384 5378 5373 5367 5362 5355 5348 5340 5330 5320 5308 5296 5283 5271 5260 5252
5492 5494 5495 5494 5492 5489 5487 5485 5483 5479 5475 5469 5463 5457 5452 5445 5439 5433 5428 5421 5417 5414 5407 5402 5397 5392 5386 5381 5376 5370 5365 5359 5353 5346 5338 5329 5319 5308 5295 5282 5267 5256 5248 5242
5484 5486 5486 5485 5483 5480 5478 5477 5474 5471 5467 5462 5457 5452 5447 5440 5434 5429 5420 5414 5411 5407 5401 5395 5390 5385 5379 5373 5368 5363 5357 5351 5344 5337 5328 5319 5308 5296 5283 5269 5256 5247 5241 5239
5473 5475 5474 5474 5473 5471 5468 5465 5463 5460 5457 5452 5448 5444 5439 5433 5425 5420 5417 5411 5406 5400 5393 5388 5383 5377 5372 5365 5361 5355 5349 5343 5336 5327 5319 5309 5298 5286 5273 5261 5250 5244 5241 5241
5459 5460 5460 5460 5460 5458 5455 5452 5450 5448 5445 5441 5436 5432 5429 5425 5420 5413 5408 5403 5399 5391 5384 5380 5375 5369 5364 5359 5354 5348 5342 5335 5328 5320 5310 5300 5289 5278 5266 5256 5249 5245 5244 5245
5449 5450 5450 5450 5449 5446 5444 5443 5442 5438 5435 5430 5425 5421 5418 5415 5410 5404 5399 5393 5388 5382 5374 5369 5365 5361 5357 5352 5347 5342 5335 5328 5320 5312 5303 5293 5283 5272 5263 5256 5251 5249 5249 5250
5439 5440 5439 5437 5437 5436 5435 5435 5433 5430 5427 5424 5417 5411 5408 5404 5399 5393 5388 5382 5376 5370 5365 5361 5357 5354 5350 5346 5341 5335 5329 5322 5315 5306 5297 5288 5278 5269 5262 5258 5255 5254 5255 5256